Litchfield, MN

9:28 PM CDT on August 19, 2017 (GMT -0500)
Litchfield Municipal

Weather History for KLJF - April, 2013

Change the Weather History Date:

Wednesday, April 10, 2013

  Actual Average Record
Temperature  
Mean Temperature 34 °F -  
Max Temperature 37 °F 53 °F 86 °F (1977)
Min Temperature 32 °F 30 °F 15 °F (1989)
Degree Days  
Heating Degree Days 30    
Moisture  
Dew Point 27 °F    
Average Humidity 74    
Maximum Humidity 100    
Minimum Humidity 52    
Precipitation  
Precipitation 0.00 in - - ()
Sea Level Pressure  
Sea Level Pressure 30.04 in    
Wind  
Wind Speed 12 mph (ENE)    
Max Wind Speed 24 mph    
Max Gust Speed 30 mph    
Visibility 8 miles    
Events Snow    
Averages and records for this station are not official NWS values.
T = Trace of Precipitation, MM = Missing Value Source: NWS Daily Summary

Daily Weather History Graph

Daily Weather History Graph

Search for Another Location

Airport or City:

Trip Planner

Search our weather history database for the weather conditions in past years. The results will help you decide how hot, cold, wet, or windy it might be!

Date:

Astronomy

Apr. 10, 2013 Rise Set
Actual Time 6:41 AM CDT 7:57 PM CDT
Civil Twilight 6:11 AM CDT 8:28 PM CDT
Nautical Twilight 5:34 AM CDT 9:04 PM CDT
Astronomical Twilight 4:56 AM CDT 9:43 PM CDT
Moon 6:36 AM CDT (4/10) 8:37 PM CDT (4/10)
Length of Visible Light 14h 16m
Length of Day
13h 16m
New Moon, 0% of the Moon is Illuminated
Apr 10
New Moon
Apr 18
First Quarter
Apr 25
Full
May 2
Last Quarter
May 9
New

Hourly Weather History & Observations

Time (CDT) Temp. Windchill Dew Point Humidity Pressure Visibility Wind Dir Wind Speed Gust Speed Precip Events Conditions
12:13 AM 33.8 °F 28.6 °F 32.0 °F 93% 30.18 in 10.0 mi ENE 5.8 mph - N/A   Overcast
12:32 AM 33.8 °F 27.7 °F 30.2 °F 87% 30.17 in 10.0 mi East 6.9 mph - N/A Snow Light Snow
12:51 AM 35.6 °F 29.9 °F 30.2 °F 81% 30.17 in 10.0 mi ENE 6.9 mph - N/A   Overcast
1:12 AM 35.6 °F 27.5 °F 28.4 °F 75% 30.16 in 10.0 mi ENE 11.5 mph - N/A   Overcast
1:33 AM 35.6 °F 23.7 °F 26.6 °F 70% 30.03 in 10.0 mi NE 24.2 mph 29.9 mph N/A   Light Drizzle
1:53 AM 35.6 °F 25.9 °F 26.6 °F 70% 30.10 in 10.0 mi East 16.1 mph 28.8 mph N/A   Light Drizzle
2:12 AM 35.6 °F 27.1 °F 26.6 °F 70% 30.10 in 10.0 mi ENE 12.7 mph 17.3 mph N/A   Scattered Clouds
2:33 AM 35.6 °F 25.9 °F 24.8 °F 65% 30.11 in 10.0 mi ENE 16.1 mph - N/A   Overcast
2:53 AM 35.6 °F 28.6 °F 26.6 °F 70% 30.12 in 10.0 mi NNE 9.2 mph - N/A   Overcast
3:10 AM 35.6 °F 28.0 °F 26.6 °F 70% 30.13 in 10.0 mi NNE 10.4 mph - N/A   Overcast
3:33 AM 35.6 °F 28.6 °F 26.6 °F 70% 30.13 in 10.0 mi NNE 9.2 mph 17.3 mph N/A   Overcast
7:01 AM 33.8 °F 24.8 °F 24.8 °F 70% 30.09 in 10.0 mi NE 12.7 mph - N/A   Overcast
7:13 AM 33.8 °F 24.8 °F 24.8 °F 70% 30.09 in 10.0 mi ENE 12.7 mph 18.4 mph N/A   Overcast
7:32 AM 33.8 °F 25.3 °F 24.8 °F 70% 30.07 in 10.0 mi ENE 11.5 mph 19.6 mph N/A   Overcast
7:53 AM 33.8 °F 24.3 °F 23.0 °F 65% 30.07 in 10.0 mi NE 13.8 mph 21.9 mph N/A   Overcast
8:13 AM 33.8 °F 24.3 °F 24.8 °F 70% 30.08 in 10.0 mi NE 13.8 mph 19.6 mph N/A   Overcast
8:33 AM 33.8 °F 23.9 °F 24.8 °F 70% 30.08 in 10.0 mi NE 15.0 mph 20.7 mph N/A   Overcast
8:53 AM 33.8 °F 23.9 °F 24.8 °F 70% 30.09 in 10.0 mi NE 15.0 mph 19.6 mph N/A   Overcast
9:13 AM 33.8 °F 23.5 °F 24.8 °F 70% 30.07 in 10.0 mi NE 16.1 mph 21.9 mph N/A   Overcast
9:33 AM 33.8 °F 22.8 °F 24.8 °F 70% 30.07 in 10.0 mi NE 18.4 mph 23.0 mph N/A   Overcast
9:53 AM 33.8 °F 23.5 °F 23.0 °F 65% 30.07 in 10.0 mi NE 16.1 mph 24.2 mph N/A   Overcast
10:13 AM 33.8 °F 22.8 °F 23.0 °F 65% 30.06 in 10.0 mi NE 18.4 mph 25.3 mph N/A   Overcast
10:32 AM 33.8 °F 22.5 °F 23.0 °F 65% 30.06 in 10.0 mi ENE 19.6 mph 24.2 mph N/A   Overcast
10:53 AM 35.6 °F 25.2 °F 23.0 °F 60% 30.07 in 10.0 mi NE 18.4 mph - N/A   Overcast
11:13 AM 35.6 °F 26.6 °F 23.0 °F 60% 30.08 in 10.0 mi NE 13.8 mph 24.2 mph N/A   Overcast
11:32 AM 35.6 °F 27.5 °F 24.8 °F 65% 30.09 in 10.0 mi NE 11.5 mph - N/A   Overcast
12:13 PM 37.4 °F 28.9 °F 23.0 °F 56% 30.06 in 10.0 mi NE 13.8 mph 19.6 mph N/A   Overcast
12:32 PM 37.4 °F 29.8 °F 23.0 °F 56% 30.07 in 10.0 mi NE 11.5 mph - N/A   Overcast
1:12 PM 37.4 °F 29.3 °F 21.2 °F 52% 30.07 in 10.0 mi NE 12.7 mph 17.3 mph N/A   Overcast
1:33 PM 37.4 °F 30.3 °F 21.2 °F 52% 30.09 in 10.0 mi NE 10.4 mph 17.3 mph N/A   Overcast
1:52 PM 37.4 °F 29.8 °F 23.0 °F 56% 30.09 in 10.0 mi NE 11.5 mph - N/A   Overcast
2:13 PM 37.4 °F 29.3 °F 23.0 °F 56% 30.08 in 10.0 mi NE 12.7 mph - N/A   Overcast
2:33 PM 37.4 °F 28.5 °F 23.0 °F 56% 30.08 in 10.0 mi ENE 15.0 mph 18.4 mph N/A   Overcast
2:52 PM 37.4 °F 28.9 °F 24.8 °F 60% 30.08 in 10.0 mi ENE 13.8 mph 19.6 mph N/A   Overcast
3:13 PM 37.4 °F 29.3 °F 26.6 °F 65% 30.06 in 10.0 mi ENE 12.7 mph 24.2 mph N/A   Overcast
3:33 PM 37.4 °F 28.5 °F 26.6 °F 65% 30.05 in 10.0 mi ENE 15.0 mph 23.0 mph N/A   Overcast
3:52 PM 37.4 °F 27.8 °F 26.6 °F 65% 30.03 in 10.0 mi ENE 17.3 mph - N/A   Overcast
4:13 PM 37.4 °F 27.5 °F 26.6 °F 65% 30.03 in 10.0 mi ENE 18.4 mph 23.0 mph N/A   Light Drizzle
4:33 PM 35.6 °F 27.1 °F 28.4 °F 75% 30.03 in 7.0 mi ENE 12.7 mph 18.4 mph N/A Snow Light Snow
4:52 PM 35.6 °F 27.1 °F 28.4 °F 75% 30.03 in 7.0 mi ENE 12.7 mph 17.3 mph N/A Snow Snow
5:13 PM 35.6 °F 26.6 °F 30.2 °F 81% 30.03 in 3.0 mi ENE 13.8 mph 21.9 mph N/A   Overcast
5:33 PM 33.8 °F 24.8 °F 32.0 °F 93% 30.02 in 3.0 mi ENE 12.7 mph - N/A   Overcast
5:52 PM 33.8 °F 24.8 °F 33.8 °F 100% 30.02 in 2.0 mi ENE 12.7 mph - N/A   Overcast
6:13 PM 33.8 °F 23.9 °F 33.8 °F 100% 30.01 in 2.5 mi ENE 15.0 mph - N/A   Overcast
6:33 PM 33.8 °F 25.3 °F 33.8 °F 100% 30.01 in 3.0 mi ENE 11.5 mph 18.4 mph N/A   Overcast
6:52 PM 33.8 °F 24.3 °F 32.0 °F 93% 30.00 in 1.5 mi East 13.8 mph 18.4 mph N/A   Overcast
7:13 PM 33.8 °F 24.3 °F 32.0 °F 93% 29.98 in 2.5 mi East 13.8 mph - N/A   Overcast
7:33 PM 33.8 °F 24.8 °F 32.0 °F 93% 29.95 in 7.0 mi East 12.7 mph - N/A   Overcast
7:52 PM 33.8 °F 25.3 °F 32.0 °F 93% 29.94 in 10.0 mi ENE 11.5 mph - N/A   Overcast
8:12 PM 33.8 °F 24.8 °F 32.0 °F 93% 29.91 in 10.0 mi ENE 12.7 mph 17.3 mph N/A   Overcast
8:32 PM 33.8 °F 24.3 °F 30.2 °F 87% 29.90 in 10.0 mi ENE 13.8 mph 20.7 mph N/A   Overcast
8:53 PM 35.6 °F 27.1 °F 28.4 °F 75% 29.93 in 10.0 mi ENE 12.7 mph 20.7 mph N/A   Overcast
9:13 PM 35.6 °F 27.5 °F 28.4 °F 75% 29.94 in 10.0 mi ENE 11.5 mph - N/A   Overcast
9:52 PM 35.6 °F 28.6 °F 28.4 °F 75% 29.96 in 4.0 mi ENE 9.2 mph - N/A Snow Light Snow
10:13 PM 33.8 °F 25.3 °F 30.2 °F 87% 29.95 in 4.0 mi NE 11.5 mph - N/A Snow Light Snow
10:33 PM 33.8 °F 24.8 °F 30.2 °F 87% 29.94 in 7.0 mi NE 12.7 mph - N/A   Overcast
10:52 PM 33.8 °F 25.3 °F 30.2 °F 87% 29.94 in 5.0 mi NE 11.5 mph 18.4 mph N/A Snow Light Snow
11:13 PM 32.0 °F 21.6 °F 28.4 °F 87% 29.93 in 7.0 mi NE 15.0 mph 20.7 mph N/A   Overcast
11:33 PM 32.0 °F 23.0 °F 30.2 °F 93% 29.92 in 7.0 mi NE 11.5 mph 23.0 mph N/A   Overcast
11:52 PM 32.0 °F 21.2 °F 30.2 °F 93% 29.91 in 10.0 mi NE 16.1 mph - N/A   Overcast